Weather History for PHNL - April, 2014

Change the Weather History Date:

Monday, April 21, 2014

  Actual Average Record
Temperature  
Mean Temperature 77 °F 76 °F  
Max Temperature 81 °F 83 °F 89 °F (1996)
Min Temperature 72 °F 70 °F 60 °F (1958)
Degree Days  
Heating Degree Days 0 0  
Month to date heating degree days 0 0  
Since 1 July heating degree days 0 0  
Cooling Degree Days 12 11  
Month to date cooling degree days 252 231  
Year to date cooling degree days 1080 1006  
Growing Degree Days 26 (Base 50)    
Moisture  
Dew Point 65 °F    
Average Humidity 71    
Maximum Humidity 79    
Minimum Humidity 62    
Precipitation  
Precipitation T in 0.02 in 0.56 in (2013)
Month to date precipitation 0.17 0.50  
Year to date precipitation 6.46 6.82  
Snow  
Snow 0.00 in - - ()
Month to date snowfall 0.0  
Since 1 July snowfall 0.0  
Snow Depth 0.00 in    
Sea Level Pressure  
Sea Level Pressure 30.12 in    
Wind  
Wind Speed 14 mph (NE)    
Max Wind Speed 25 mph    
Max Gust Speed 32 mph    
Visibility 10 miles    
Events Rain    
T = Trace of Precipitation, MM = Missing Value Source: NWS Daily Summary

Daily Weather History Graph

Daily Weather History Graph

Search for Another Location

Airport or City:

Trip Planner

Search our weather history database for the weather conditions in past years. The results will help you decide how hot, cold, wet, or windy it might be!

Date:

Astronomy

Apr. 21, 2014 Rise Set
Actual Time 6:07 AM HST 6:53 PM HST
Civil Twilight 5:44 AM HST 7:16 PM HST
Nautical Twilight 5:17 AM HST 7:43 PM HST
Astronomical Twilight 4:50 AM HST 8:10 PM HST
Moon 12:22 AM HST (4/21) 11:55 AM HST (4/21)
Length of Visible Light 13h 31m
Length of Day
12h 45m
Waning Gibbous, 55% of the Moon is Illuminated
Apr 21
Waning Gibbous
Apr 21
Last Quarter
Apr 28
New
May 6
First Quarter
May 14
Full

Hourly Weather History & Observations

Time (HST) Temp. Heat Index Dew Point Humidity Pressure Visibility Wind Dir Wind Speed Gust Speed Precip Events Conditions
12:53 AM 73.9 °F - 64.9 °F 73% 30.14 in 10.0 mi NE 8.1 mph 19.6 mph 0.00 in   Mostly Cloudy
1:53 AM 75.0 °F - 64.9 °F 71% 30.13 in 10.0 mi NE 15.0 mph 21.9 mph 0.00 in   Mostly Cloudy
2:53 AM 73.9 °F - 64.9 °F 73% 30.10 in 10.0 mi NE 10.4 mph - 0.00 in   Mostly Cloudy
3:53 AM 73.0 °F - 66.0 °F 79% 30.11 in 10.0 mi NE 15.0 mph 24.2 mph 0.00 in Rain Light Rain
4:53 AM 73.9 °F - 64.0 °F 71% 30.12 in 10.0 mi NE 12.7 mph 21.9 mph 0.00 in   Mostly Cloudy
5:37 AM 71.6 °F - 66.2 °F 83% 30.13 in 10.0 mi NE 10.4 mph - 0.00 in   Mostly Cloudy
5:53 AM 73.0 °F - 64.9 °F 76% 30.14 in 10.0 mi NE 11.5 mph - 0.00 in   Mostly Cloudy
6:53 AM 73.0 °F - 64.9 °F 76% 30.15 in 10.0 mi NE 12.7 mph - 0.00 in   Mostly Cloudy
7:53 AM 73.9 °F - 64.9 °F 73% 30.15 in 10.0 mi NE 15.0 mph 21.9 mph 0.00 in Rain Light Rain
8:53 AM 73.9 °F - 66.0 °F 76% 30.16 in 9.0 mi ENE 10.4 mph - 0.00 in Rain Light Rain
9:53 AM 75.0 °F - 66.9 °F 76% 30.17 in 9.0 mi ENE 12.7 mph 20.7 mph 0.00 in Rain Light Rain
10:53 AM 75.0 °F - 66.9 °F 76% 30.17 in 8.0 mi NE 12.7 mph 24.2 mph 0.00 in Rain Light Rain
11:53 AM 77.0 °F - 66.9 °F 71% 30.15 in 9.0 mi ENE 16.1 mph 26.5 mph 0.00 in Rain Light Rain
12:53 PM 80.1 °F 82.1 °F 66.0 °F 62% 30.13 in 10.0 mi ENE 17.3 mph 26.5 mph 0.00 in   Overcast
1:53 PM 79.0 °F - 64.9 °F 62% 30.11 in 10.0 mi NE 15.0 mph 23.0 mph 0.00 in   Mostly Cloudy
2:53 PM 79.0 °F - 64.9 °F 62% 30.09 in 10.0 mi ENE 18.4 mph 24.2 mph N/A   Mostly Cloudy
3:53 PM 79.0 °F - 66.0 °F 64% 30.09 in 10.0 mi NE 20.7 mph 29.9 mph N/A   Mostly Cloudy
4:53 PM 78.1 °F - 66.0 °F 66% 30.09 in 10.0 mi ENE 15.0 mph 24.2 mph N/A   Mostly Cloudy
5:53 PM 77.0 °F - 66.0 °F 69% 30.08 in 10.0 mi ENE 13.8 mph 23.0 mph 0.00 in   Mostly Cloudy
6:53 PM 75.9 °F - 64.9 °F 69% 30.09 in 10.0 mi ENE 12.7 mph 24.2 mph N/A   Mostly Cloudy
7:53 PM 75.9 °F - 64.9 °F 69% 30.10 in 10.0 mi NE 15.0 mph 21.9 mph N/A   Scattered Clouds
8:53 PM 75.9 °F - 64.9 °F 69% 30.11 in 10.0 mi NE 13.8 mph 24.2 mph N/A   Scattered Clouds
9:53 PM 75.9 °F - 64.9 °F 69% 30.12 in 10.0 mi NE 15.0 mph - N/A   Mostly Cloudy
10:53 PM 75.9 °F - 64.9 °F 69% 30.12 in 10.0 mi NE 15.0 mph 26.5 mph N/A   Mostly Cloudy
11:53 PM 75.9 °F - 64.9 °F 69% 30.12 in 10.0 mi ENE 16.1 mph - N/A   Mostly Cloudy